Location: Unspecified
(0.0000°N, 0.0000°E)
Time: 12:05:54
(UTC+00:00)

A-11 Canister half - All Passes

Search period start: 23 January 2021 00:00
Search period end: 02 February 2021 00:00
Orbit: 1524 x 1684 km, 47.3° (Epoch: 22 January)

Date Brightness Start Highest point End Pass type
(mag) Time Alt. Az. Time Alt. Az. Time Alt. Az.
23 Jan - 01:48:49 10° W 01:55:50 21° SW 02:02:51 10° S visible
23 Jan - 10:29:09 10° SSW 10:37:32 36° SE 10:45:47 10° ENE daylight
23 Jan - 12:33:32 10° WSW 12:42:18 46° NW 12:51:05 10° NNE daylight
23 Jan - 21:18:16 10° NNE 21:23:29 15° NE 21:28:44 10° ENE night (unlit)
23 Jan - 23:18:48 10° NW 23:28:53 79° NE 23:39:04 10° SE night (unlit)
24 Jan - 01:26:44 10° W 01:34:06 23° SW 01:41:30 10° S visible
24 Jan - 10:07:40 10° SSW 10:15:53 33° SE 10:23:56 10° ENE daylight
24 Jan - 12:11:45 10° WSW 12:20:40 50° NW 12:29:33 10° NNE daylight
24 Jan - 20:57:11 10° NNE 21:01:44 14° NE 21:06:18 10° ENE night (unlit)
24 Jan - 22:57:10 10° NNW 23:07:12 74° NE 23:17:22 10° SE night (unlit)
25 Jan - 01:04:41 10° W 01:12:22 24° SW 01:20:06 10° S visible
25 Jan - 09:46:11 10° S 09:54:13 31° SE 10:02:05 10° ENE daylight
25 Jan - 11:50:00 10° SW 11:59:01 54° NW 12:08:00 10° NNE daylight
25 Jan - 20:36:16 10° NNE 20:39:59 12° NE 20:43:42 10° ENE visible
25 Jan - 22:35:33 10° NNW 22:45:31 69° NE 22:55:38 10° SE night (unlit)
26 Jan - 00:42:42 10° W 00:50:39 26° SW 00:58:41 10° S visible
26 Jan - 09:24:44 10° S 09:32:33 29° SE 09:40:11 10° ENE daylight
26 Jan - 11:28:15 10° SW 11:37:23 58° NW 11:46:27 10° NNE daylight
26 Jan - 20:15:40 10° NNE 20:18:13 11° NE 20:20:48 10° ENE visible
26 Jan - 22:13:56 10° NNW 22:23:50 65° NE 22:33:53 10° SE night (unlit)
27 Jan - 00:20:43 10° WNW 00:28:55 28° SW 00:37:15 10° S visible
27 Jan - 09:03:17 10° S 09:10:52 27° SE 09:18:17 10° ENE daylight
27 Jan - 11:06:31 10° SW 11:15:45 62° NW 11:24:52 10° NNE daylight
27 Jan - 21:52:21 10° NNW 22:02:09 61° NE 22:12:08 10° SE visible
27 Jan - 23:58:46 10° WNW 00:07:13 30° SW 00:15:46 10° S visible
28 Jan - 08:41:51 10° S 08:49:11 25° SE 08:56:21 10° E daylight
28 Jan - 10:44:48 10° SW 10:54:06 67° NW 11:03:18 10° NNE daylight
28 Jan - 12:57:53 10° NW 12:59:30 10° NW 13:01:08 10° NNW daylight
28 Jan - 21:30:46 10° NNW 21:40:28 57° NE 21:50:21 10° SE visible
28 Jan - 23:36:51 10° WNW 23:45:30 33° SW 23:54:17 10° SSE visible
29 Jan - 08:20:27 10° S 08:27:30 23° SE 08:34:23 10° E daylight
29 Jan - 10:23:06 10° SW 10:32:29 72° NW 10:41:42 10° NNE daylight
29 Jan - 12:34:47 10° WNW 12:37:47 12° NW 12:40:47 10° NNW daylight
29 Jan - 21:09:12 10° NNW 21:18:48 53° NE 21:28:34 10° SE visible
29 Jan - 23:14:58 10° WNW 23:23:48 35° SW 23:32:47 10° SSE visible
30 Jan - 07:59:04 10° S 08:05:48 21° SE 08:12:23 10° E daylight
30 Jan - 10:01:23 10° SW 10:10:51 77° NW 10:20:06 10° NE daylight
30 Jan - 12:12:11 10° WNW 12:16:04 13° NW 12:19:57 10° NNW daylight
30 Jan - 20:47:39 10° NNW 20:57:07 49° NE 21:06:45 10° ESE visible
30 Jan - 22:53:05 10° WNW 23:02:06 38° SW 23:11:16 10° SSE night (unlit)
31 Jan - 07:37:43 10° S 07:44:06 20° SE 07:50:21 10° E daylight
31 Jan - 09:39:43 10° SW 09:49:12 82° NW 09:58:30 10° NE daylight
31 Jan - 11:49:46 10° WNW 11:54:21 14° NW 11:58:56 10° NNW daylight
31 Jan - 20:26:07 10° NNW 20:35:26 46° NE 20:44:57 10° ESE visible
31 Jan - 22:31:15 10° WNW 22:40:24 40° SW 22:49:44 10° SSE visible
01 Feb - 07:16:25 10° S 07:22:24 18° SE 07:28:16 10° E daylight
01 Feb - 09:18:02 10° SW 09:27:34 87° NW 09:36:53 10° NE daylight
01 Feb - 11:27:29 10° W 11:32:39 16° NW 11:37:48 10° NNW daylight
01 Feb - 20:04:36 10° NNW 20:13:45 43° NE 20:23:05 10° ESE visible
01 Feb - 22:09:26 10° WNW 22:18:42 43° SW 22:28:10 10° SSE visible
